Content
SEND FEEDBACK

Daily
Averages
Monthly
Summary
Canada

VANCOUVER, BRITISH COLUMBIA


Home > North America > Canada > British Columbia
Elevation: 7 feet     Latitude: 49 11N     Longitude: 123 10W

WEATHER
 
SELECT A DAY
Number of Records: 253,051;   Date Range: 5/15/97 - 10/22/14
 
SHARE

PRINT THIS DATA

[ ← Previous Day ]
WEATHER ALMANAC - APRIL 24, 2013
[ Next Day → ]
[ °C ]   °F
Weather ElementAverageHighLow
Temperature49.6 °F62.6 °F (5:55 pm)39.2 °F (3:35 am)
Dewpoint38.8 °F44.6 °F (11:15 am)32 °F (6:35 pm)
Humidity70.3 %100 % (4:35 am)32 % (6:35 pm)
Barometer30.23 in30.32 in (3:55 am)30.04 in (11:55 pm)
Wind Speed0.4 mph5.8 mph (9:55 pm)
Weather ElementAverage
Visibility9.8 mi
Wind DirectionNNE (24.2 °)

Weather ElementTotal
Precipitation---
Heating Degree Days14.1 (Base 65)
Growing Degree Days0.9 (Base 50)
Averaged from 66 records on April 24, 2013
WEATHER CONDITIONS BREAKOUT
WIND DIRECTION BREAKOUT
WEATHER BY HOUR - APRIL 24, 2013
[ °C ]   °F
Local TimeTemperatureDewpointHumidityBarometerVisibilityWind DirectionWind SpeedGust SpeedPrecipitationEventsConditions
12:35 AM42.8 °F39.2 °F87 %30.31 in10.0 miCalmClear
12:55 AM42.8 °F39.2 °F87 %30.31 in10.0 miCalmClear
1:15 AM41.0 °F39.2 °F93 %30.31 in10.0 miCalmClear
1:35 AM42.8 °F39.2 °F87 %30.31 in10.0 miCalmClear
1:55 AM42.8 °F39.2 °F87 %30.31 in10.0 miCalmClear
2:15 AM42.8 °F39.2 °F87 %30.31 in10.0 miCalmClear
2:35 AM41.0 °F39.2 °F93 %30.31 in10.0 miCalmClear
2:55 AM41.0 °F37.4 °F87 %30.31 in10.0 miCalmClear
3:15 AM41.0 °F37.4 °F87 %30.31 in10.0 miCalmClear
3:35 AM39.2 °F37.4 °F93 %30.31 in10.0 miCalmClear
3:55 AM41.0 °F37.4 °F87 %30.32 in10.0 miCalmClear
4:15 AM39.2 °F37.4 °F93 %30.32 in10.0 miCalmClear
4:35 AM39.2 °F39.2 °F100 %30.32 in10.0 miCalmClear
4:55 AM39.2 °F39.2 °F100 %30.32 in10.0 miCalmClear
5:15 AM39.2 °F39.2 °F100 %30.32 in10.0 miCalmClear
5:35 AM39.2 °F39.2 °F100 %30.31 in10.0 miCalmClear
5:55 AM39.2 °F39.2 °F100 %30.31 in10.0 miCalmClear
6:15 AM39.2 °F39.2 °F100 %30.31 in9.0 miCalmClear
6:35 AM39.2 °F37.4 °F93 %30.31 in8.0 miCalmClear
6:55 AM39.2 °F39.2 °F100 %30.32 in9.0 miCalmClear
7:15 AM39.2 °F39.2 °F100 %30.31 in9.0 miCalmClear
7:35 AM42.8 °F41.0 °F93 %30.31 in9.0 miCalmClear
7:55 AM46.4 °F42.8 °F87 %30.32 in9.0 miCalmClear
8:15 AM48.2 °F42.8 °F82 %30.31 in9.0 miCalmClear
8:35 AM48.2 °F41.0 °F76 %30.31 in10.0 miCalmClear
8:55 AM48.2 °F41.0 °F76 %30.31 in10.0 miCalmClear
9:15 AM48.2 °F41.0 °F76 %30.31 in10.0 miCalmClear
9:35 AM48.2 °F41.0 °F76 %30.30 in10.0 miCalmClear
9:55 AM48.2 °F41.0 °F76 %30.30 in10.0 miCalmClear
10:15 AM48.2 °F41.0 °F76 %30.30 in9.0 miCalmClear
10:35 AM50.0 °F42.8 °F76 %30.30 in10.0 miCalmClear
10:55 AM48.2 °F42.8 °F82 %30.29 in9.0 miCalmClear
11:15 AM50.0 °F44.6 °F82 %30.29 in9.0 miCalmClear
11:35 AM53.6 °F42.8 °F67 %30.28 in10.0 miCalmClear
11:55 AM55.4 °F41.0 °F58 %30.27 in10.0 miCalmClear
12:15 PM55.4 °F41.0 °F58 %30.27 in10.0 miCalmClear
12:35 PM55.4 °F39.2 °F54 %30.26 in10.0 miCalmClear
1:15 PM55.4 °F39.2 °F54 %30.25 in10.0 miNorth (360°)3.5 mphClear
1:35 PM55.4 °F41.0 °F58 %30.24 in10.0 miCalmClear
1:55 PM55.4 °F37.4 °F51 %30.23 in10.0 miNorth (360°)4.6 mphClear
2:15 PM57.2 °F37.4 °F48 %30.22 in10.0 miCalmClear
2:35 PM59.0 °F37.4 °F45 %30.22 in10.0 miNNW (340°)4.6 mphClear
2:55 PM59.0 °F35.6 °F42 %30.21 in10.0 miCalmClear
3:15 PM59.0 °F35.6 °F42 %30.20 in10.0 miNorth (350°)4.6 mphClear
3:35 PM59.0 °F33.8 °F39 %30.18 in10.0 miCalmClear
3:55 PM59.0 °F35.6 °F42 %30.18 in10.0 miCalmClear
4:15 PM59.0 °F35.6 °F42 %30.17 in10.0 miCalmClear
4:35 PM59.0 °F35.6 °F42 %30.15 in10.0 miCalmClear
4:55 PM59.0 °F35.6 °F42 %30.14 in10.0 miCalmClear
5:15 PM59.0 °F35.6 °F42 %30.13 in10.0 miCalmClear
5:35 PM60.8 °F35.6 °F39 %30.12 in10.0 miCalmClear
5:55 PM62.6 °F35.6 °F37 %30.11 in10.0 miCalmClear
6:15 PM62.6 °F33.8 °F34 %30.10 in10.0 miCalmClear
6:35 PM62.6 °F32.0 °F32 %30.09 in10.0 miCalmClear
6:55 PM62.6 °F37.4 °F39 %30.09 in10.0 miCalmClear
8:35 PM55.4 °F41.0 °F58 %30.06 in10.0 miNorthClear
8:55 PM51.8 °F42.8 °F71 %30.07 in10.0 miCalmClear
9:15 PM50.0 °F41.0 °F71 %30.06 in10.0 miCalmClear
9:35 PM53.6 °F39.2 °F58 %30.06 in10.0 miCalmClear
9:55 PM53.6 °F39.2 °F58 %30.06 in10.0 miSouth (190°)5.8 mphClear
10:15 PM53.6 °F37.4 °F54 %30.06 in10.0 miCalmClear
10:35 PM51.8 °F37.4 °F58 %30.06 in10.0 miCalmClear
10:55 PM48.2 °F39.2 °F71 %30.06 in10.0 miCalmClear
11:15 PM48.2 °F39.2 °F71 %30.05 in10.0 miCalmClear
11:35 PM48.2 °F39.2 °F71 %30.05 in10.0 miCalmClear
11:55 PM46.4 °F39.2 °F76 %30.04 in10.0 miCalmClear
Hourly data recorded from CZBB, located miles away from Vancouver, British Columbia







STORIES FROM OUR PARTNERS